Tucson, AZ

11:29 PM MST on September 24, 2017 (GMT -0700)
Tucson International

Weather History for KTUS - March, 2013

Change the Weather History Date:

Sunday, March 3, 2013

  Actual Average Record
Temperature  
Mean Temperature 65 °F 58 °F  
Max Temperature 81 °F 71 °F 90 °F (1910)
Min Temperature 48 °F 44 °F 22 °F (1965)
Degree Days  
Heating Degree Days 0 8  
Month to date heating degree days 13 24  
Since 1 July heating degree days 1288 1291  
Cooling Degree Days 0 0  
Month to date cooling degree days 0 0  
Year to date cooling degree days 0 4  
Growing Degree Days 16 (Base 50)    
Moisture  
Dew Point 21 °F    
Average Humidity 25    
Maximum Humidity 42    
Minimum Humidity 7    
Precipitation  
Precipitation 0.00 in 0.03 in 0.60 in (1981)
Month to date precipitation 0.00 0.08  
Year to date precipitation 1.60 1.88  
Snow  
Snow 0.00 in - - ()
Month to date snowfall 0.0  
Snow Depth 0.00 in    
Sea Level Pressure  
Sea Level Pressure 30.03 in    
Wind  
Wind Speed 8 mph (South)    
Max Wind Speed 16 mph    
Max Gust Speed 23 mph    
Visibility 10 miles    
Events      
T = Trace of Precipitation, MM = Missing Value Source: NWS Daily Summary

Daily Weather History Graph

Daily Weather History Graph

Search for Another Location

Airport or City:

Trip Planner

Search our weather history database for the weather conditions in past years. The results will help you decide how hot, cold, wet, or windy it might be!

Date:

Astronomy

Mar. 03, 2013 Rise Set
Actual Time 6:48 AM MST 6:23 PM MST
Civil Twilight 6:23 AM MST 6:47 PM MST
Nautical Twilight 5:55 AM MST 7:16 PM MST
Astronomical Twilight 5:27 AM MST 7:44 PM MST
Moon No Moon Rise 10:29 AM MST (3/3)
Length of Visible Light 12h 23m
Length of Day
11h 34m
Waning Gibbous, 63% of the Moon is Illuminated
Mar 3
Waning Gibbous
Mar 4
Last Quarter
Mar 11
New
Mar 19
First Quarter
Mar 27
Full

Hourly Weather History & Observations

Time (MST) Temp. Windchill Dew Point Humidity Pressure Visibility Wind Dir Wind Speed Gust Speed Precip Events Conditions
12:53 AM 55.0 °F - 28.0 °F 35% 30.05 in 10.0 mi SE 11.5 mph - N/A   Clear
1:53 AM 54.0 °F - 27.0 °F 35% 30.06 in 10.0 mi SSE 10.4 mph - N/A   Clear
2:53 AM 54.0 °F - 26.1 °F 34% 30.12 in 10.0 mi SE 11.5 mph - N/A   Clear
3:53 AM 50.0 °F - 27.0 °F 41% 30.02 in 10.0 mi SSE 10.4 mph - N/A   Clear
4:53 AM 48.2 °F - 26.6 °F 43% 30.10 in 10.0 mi SE 9.2 mph - N/A   Clear
5:53 AM - - - N/A% 30.10 in 10.0 mi SSE 9.2 mph - N/A   Clear
6:53 AM 48.0 °F - 21.9 °F 36% 30.10 in 10.0 mi SSE 12.7 mph - N/A   Clear
7:53 AM 46.0 °F 44.8 °F 24.1 °F 42% 30.13 in 10.0 mi South 3.5 mph - N/A   Clear
9:52 AM 59.0 °F - 24.8 °F 27% 30.12 in 10.0 mi SSE 5.8 mph - N/A   Clear
9:53 AM 64.9 °F - 24.1 °F 21% 30.12 in 10.0 mi Variable 3.5 mph - N/A   Clear
10:53 AM 87.1 °F - 21.9 °F 9% 30.11 in 10.0 mi Calm Calm - N/A   Clear
11:53 AM 64.4 °F - 24.8 °F 22% 30.09 in 10.0 mi Variable 6.9 mph - N/A   Clear
11:55 AM 69.8 °F - 24.8 °F 18% 30.09 in 10.0 mi West 6.9 mph - N/A   Clear
12:53 PM 78.1 °F - 10.9 °F 8% 30.06 in 10.0 mi Calm Calm - N/A   Clear
1:53 PM 80.1 °F - 10.0 °F 7% 30.03 in 10.0 mi West 15.0 mph 20.7 mph N/A   Clear
1:55 PM 73.4 °F - 21.2 °F 14% 30.03 in 10.0 mi West 12.7 mph - N/A   Clear
2:53 PM 81.0 °F - 14.0 °F 8% 30.02 in 10.0 mi West 9.2 mph - N/A   Clear
3:53 PM 81.0 °F - 15.1 °F 8% 30.00 in 10.0 mi West 10.4 mph - N/A   Clear
4:53 PM 78.1 °F - 10.0 °F 7% 29.99 in 10.0 mi West 9.2 mph - N/A   Clear
5:53 PM 77.0 °F - 12.0 °F 8% 30.01 in 10.0 mi WNW 12.7 mph - N/A   Clear
6:53 PM 73.0 °F - 17.1 °F 12% 30.00 in 10.0 mi North 6.9 mph - N/A   Clear
7:53 PM 71.1 °F - 19.9 °F 14% 30.01 in 10.0 mi Calm Calm - N/A   Clear
8:53 PM 69.1 °F - 23.0 °F 18% 30.00 in 10.0 mi North 4.6 mph - N/A   Mostly Cloudy
9:53 PM 66.9 °F - 21.9 °F 18% 29.91 in 10.0 mi SE 4.6 mph - N/A   Mostly Cloudy
10:53 PM 64.9 °F - 23.0 °F 20% 29.87 in 10.0 mi South 8.1 mph - N/A   Overcast
11:53 PM 64.0 °F - 25.0 °F 23% 29.88 in 10.0 mi SE 6.9 mph - N/A   Overcast